Regional Weather Roundup
Issued by NWS

Home | Current Version | Previous Version | Text Only | Print | Product List | Glossary Off
Versions: 1 2 3 4 5 6 7 8 9 10 11 12 13 14 15 16 17 18 19 20 21 22 23 24 25 26 27 28 29 30 31 32 33 34 35 36 37 38 39 40 41 42 43 44 45 46 47 48 49 50

000
ASUS43 KMKX 142111
RWRWI

WISCONSIN REGIONAL WEATHER ROUNDUP
NATIONAL WEATHER SERVICE MILWAUKEE/SULLIVAN WI
400 PM CDT SUN SEP 14 2014

NOTE: "FAIR" INDICATES FEW OR NO CLOUDS BELOW 12,000 FEET WITH NO
SIGNIFICANT WEATHER AND/OR OBSTRUCTIONS TO VISIBILITY.

WIZ001-002-006>008-014>016-023>028-142200-
NORTHWEST WISCONSIN

CITY           SKY/WX    TMP DP  RH WIND       PRES   REMARKS
SUPERIOR ARPT  PTSUNNY   60  43  53 W9        30.05S
ASHLAND        PTSUNNY   61  43  51 W13G20    30.04R
HAYWARD        CLOUDY    60  41  49 W8        30.06S
SIREN          MOSUNNY   59  41  51 W7        30.08S
RICE LAKE      PTSUNNY   62  38  40 SW12G20   30.09S
LADYSMITH      PTSUNNY   62  39  42 W16G24    30.08S
EAU CLAIRE     MOSUNNY   66  40  38 W14       30.08F
MENOMONIE      PTCLDY    67  37  34 SW14G21   30.08F
NEW RICHMOND   MOSUNNY   62  39  42 W14G20    30.09F
OSCEOLA        MOSUNNY   63  40  43 W12G17    30.11F
$$

WIZ003>005-009-010-017-018-142200-
NORTH CENTRAL WISCONSIN

CITY           SKY/WX    TMP DP  RH WIND       PRES   REMARKS
WOODRUFF       PTSUNNY   59  41  51 W9        30.04S
RHINELANDER    MOSUNNY   61  41  47 W13G24    30.06S
EAGLE RIVER    PTSUNNY   60  40  47 W10       30.03S
LAND O LAKES   PTSUNNY   59  41  51 W7        30.03S
PHILLIPS       PTSUNNY   60  40  48 W10G18    30.04S
TOMAHAWK       MOSUNNY   61  43  50 W9G17     30.06F
MEDFORD        PTSUNNY   60  44  54 W13G21    30.07F
MERRILL        PTSUNNY   63  48  58 W12       30.06F
$$

WIZ029-030-035-036-043>047-142200-
CENTRAL WISCONSIN

CITY           SKY/WX    TMP DP  RH WIND       PRES   REMARKS
WAUSAU         MOSUNNY   64  48  56 W15G22    30.06F
MOSINEE        NOT AVBL
MARSHFIELD     PTSUNNY   65  48  54 W17G29    30.08F
STEVENS POINT  PTSUNNY   62  45  53 SW10G18   30.08F
WAUPACA        MOSUNNY   68  46  45 SW13      30.10S
WAUTOMA        PTSUNNY   65  46  50 SW8G17    30.11S
WISC RAPIDS    LGT RAIN  66  46  48 SW15G22   30.10F
CAMP DOUGLAS   SUNNY     67  50  54 SW9       30.10F
$$

WIZ011>013-019>022-031-037>040-048>050-142200-
NORTHEAST WISCONSIN

CITY           SKY/WX    TMP DP  RH WIND       PRES   REMARKS
ANTIGO         PTSUNNY   60  47  63 W12G24    30.07S
STURGEON BAY   CLOUDY    61  45  55 SW12G20   30.10S
GREEN BAY      MOSUNNY   64  46  52 SW16G22   30.10F
MANITOWOC      MOSUNNY   64  45  49 SW14G22   30.12F
APPLETON       PTSUNNY   64  45  48 SW17G24   30.11F
CLINTONVILLE   PTSUNNY   64  43  45 SW16G22   30.08S
OSHKOSH        MOSUNNY   64  45  49 SW17G24   30.11F
$$

WIZ032>034-041-042-053>061-142200-
SOUTHWEST WISCONSIN

CITY           SKY/WX    TMP DP  RH WIND       PRES   REMARKS
LA CROSSE      PTSUNNY   69  48  47 SW13      30.09F
SPARTA         MOSUNNY   68  46  44 SW8       30.10F
VIROQUA        CLOUDY    65  47  52 SW10G16   30.12F
BOSCOBEL       MOSUNNY   70  46  42 SW10G21   30.14F
PRAIRIE DU CHI MOSUNNY   68  45  43 SW12      30.13S
PLATTEVILLE    FAIR      63  45  51 SW5G18    30.17S
$$

WIZ056-057-062-063-064-067-068-142200-
SOUTH CENTRAL WISCONSIN

CITY           SKY/WX    TMP DP  RH WIND       PRES   REMARKS
BARABOO/DELLS  MOSUNNY   66  44  44 SW13      30.12F
LONE ROCK      MOSUNNY   71  46  40 SW15      30.14F
WATERTOWN      MOSUNNY   65  46  50 SW14G21   30.14F
MADISON        MOSUNNY   66  45  46 SW10G17   30.15F
MIDDLETON      FAIR      67  44  43 SW10      30.14F
MONROE         SUNNY     64  45  48 S13G20    30.16F
JANESVILLE     MOSUNNY   66  43  42 S16G22    30.17F
$$

WIZ051-052-058>065-066-070>072-142200-
SOUTHEAST WISCONSIN

CITY           SKY/WX    TMP DP  RH WIND       PRES   REMARKS
MILWAUKEE      MOSUNNY   63  42  46 SW13      30.17F
WAUKESHA       MOSUNNY   61  43  51 SW12G23   30.18F
MILWAUKEE/TIMM SUNNY     64  41  42 S12G18    30.17F
RACINE         MOSUNNY   64  44  48 SW9       30.19F
BURLINGTON     SUNNY     63  43  48 SW12      30.17F
KENOSHA        MOSUNNY   63  46  54 SW12G20   30.19F
FOND DU LAC    MOSUNNY   64  45  49 S15G23    30.12F
SHEBOYGAN      MOSUNNY   63  44  50 SW16G23   30.13F
WEST BEND      MOSUNNY   63  41  45 SW10G21   30.14F
JUNEAU         MOSUNNY   64  45  51 SW16G23   30.15F
$$

LSZ147-162-142200-
LAKE SUPERIOR

STATION/POSITION TIME  TEMP    WIND        PRES    WAVE
                       AIR SEA DIR/SP/G            HT/PER
                 (UTC) (F)     (DEG/KT/KT) (MB)    (FT/S)
W MID LAKE BUOY  1950   51 47  240/ 16/ 17 1015.5S   5/ 6
DEVILS ISLAND    2100   54     250/ 16/ 19 1016.7S
PORT WING        2000   58     260/ 13/ 18 1017.3S
SAXON HARBOR     2000   62     270/  7/ 13 1016.6R
$$

LMZ867-665-643>646-142200-
LAKE MICHIGAN

STATION/POSITION TIME  TEMP    WIND        PRES    WAVE
                       AIR SEA DIR/SP/G            HT/PER
                 (UTC) (F)     (DEG/KT/KT) (MB)    (FT/S)
N MID LAKE BUOY  2050   57 58  210/ 23/ 27 1018.9F   6/ 6
NORTHPORT PIER   2000   59     170/  9/ 16 1019.0F
KEWAUNEE LAKESHO 2000   54     180/ 12/ 17 1019.2F
SHEBOYGAN LAKESH 2100   57 51  170/ 18/ 19 1020.7F
PORT WASHINGTON  2000   67     210/  6/ 17 1021.7F
MILWAUKEE LAKESH 2000   61     210/ 13/ 16   N/A
S MID LAKE BUOY  2050   58 65  200/ 12/ 14 1022.9F   2/ 3
KENOSHA   LAKESH 2100   63     230/  9/ 14 1021.7F
$$

TC  - TEMPERATURE IN CELSIUS
VSB - VISIBILITY IN STATUTE MILES
WCI - WIND CHILL INDEX
HX  - HEAT INDEX



USA.gov is the U.S. government's official web portal to all federal, state and local government web resources and services.